Location: Truman State University Observatory
(40.1787°N, 92.6006°W)
Time: 08:17:15
(UTC-05:00)

Envisat - Visible Passes

Search period start: 25 September 2017 00:00
Search period end: 05 October 2017 00:00
Orbit: 764 x 766 km, 98.2° (Epoch: 25 September)

Date Brightness Start Highest point End Pass type
(mag) Time Alt. Az. Time Alt. Az. Time Alt. Az.
25 Sep 4.9 19:23:15 10° ENE 19:24:48 11° ENE 19:26:23 10° NE visible
25 Sep 2.9 21:01:14 41° SSE 21:03:03 89° WSW 21:08:09 10° NNW visible
26 Sep 3.4 20:24:15 27° ESE 20:26:28 41° ENE 20:31:12 10° N visible
26 Sep 5.0 22:04:28 21° WSW 22:05:37 22° W 22:09:34 10° NW visible
27 Sep 4.4 19:47:16 13° ESE 19:50:04 20° ENE 19:53:39 10° NNE visible
27 Sep 3.7 21:27:29 41° SW 21:28:41 50° W 21:33:38 10° NNW visible
28 Sep 2.9 20:50:31 46° SE 20:51:58 73° ENE 20:57:02 10° N visible
28 Sep 5.7 22:30:44 12° W 22:31:29 12° W 22:33:33 10° WNW visible
29 Sep 3.7 20:13:32 25° ESE 20:15:26 33° ENE 20:19:56 10° N visible
29 Sep 4.7 21:53:46 27° WSW 21:54:25 28° W 21:58:47 10° NW visible
30 Sep 4.6 19:36:34 11° E 19:39:06 16° ENE 19:42:04 10° NNE visible
30 Sep 3.3 21:16:46 56° SW 21:17:34 64° W 21:22:37 10° NNW visible
01 Oct 3.0 20:39:48 47° ESE 20:40:53 57° ENE 20:45:53 10° N visible
01 Oct 5.5 22:20:01 16° W 22:20:16 16° W 22:23:21 10° NW visible
02 Oct 4.0 20:02:50 22° E 20:04:25 26° ENE 20:08:36 10° NNE visible
02 Oct 4.3 21:43:03 36° WSW 21:43:15 36° W 21:47:55 10° NNW visible
03 Oct 4.8 19:26:04 10° E 19:28:09 13° ENE 19:30:14 10° NE visible
03 Oct 2.9 21:06:04 75° SSW 21:06:27 82° W 21:11:34 10° NNW visible
04 Oct 3.3 20:29:06 42° E 20:29:51 45° ENE 20:34:40 10° N visible
04 Oct 5.2 22:09:19 20° W 22:09:19 20° W 22:12:47 10° NW visible
